Simultaneous Nadir Overpasses (SNOs) Predictions

Prediction of SNOs between LANDSAT-8 and METOP-B Satellite Orbit:

Table of predicted SNOs for the next 14.0 days since TLE Epoch: 8/8/2014
Index Date (LANDSAT-8) Time (LANDSAT-8) Lat,Lon (LANDSAT-8) SZA (LANDSAT-8 ) Date (METOP-B) Time (METOP-B) Lat,Lon (METOP-B) SZA (METOP-B ) Distance(km) Time Diff (sec)
1 08/10/2014 20:54:51 81.17, -92.96 67.85 08/10/2014 20:54:30 81.17, -92.91 67.84 0.74 21
2 08/10/2014 21:44:17 -81.20, 75.03 112.10 08/10/2014 21:45:10 -81.19, 74.94 112.09 1.65 53
3 08/13/2014 16:29:07 81.17, -26.62 68.69 08/13/2014 16:28:52 81.17, -26.59 68.68 0.60 15
4 08/13/2014 17:18:33 -81.19, 141.38 111.26 08/13/2014 17:19:32 -81.19, 141.31 111.24 1.19 59
5 08/16/2014 12:03:21 81.18, 39.95 69.59 08/16/2014 12:03:12 81.18, 40.08 69.60 2.24 9
6 08/16/2014 12:52:47 -81.20,-152.04 110.35 08/16/2014 12:53:52 -81.20,-151.99 110.32 0.93 65
7 08/19/2014 06:48:50 -80.02, -74.42 111.68 08/19/2014 06:47:36 -80.36, -75.71 111.50 45.39 74
8 08/19/2014 07:37:36 81.18, 106.38 70.50 08/19/2014 07:37:34 81.17, 106.32 70.50 1.00 2
9 08/19/2014 08:27:02 -81.20, -85.61 109.43 08/19/2014 08:28:14 -81.19, -85.72 109.42 2.01 72
10 08/22/2014 02:22:26 -81.14, 4.66 108.65 08/22/2014 02:21:18 -81.14, 4.50 108.69 2.70 68




NCC Satellite Simultaneous Nadir Overpasses (SNOs) Prediction Service
